This is the latest recevied weather packets stored in our database for station/object N8JE-13. If no packets are shown the sender has not sent any weather packets the latest 1 day(s).
| Time | Temp. | Humidity | Pressure | Rain* | Wind** | Luminosity | Snow |
|---|---|---|---|---|---|---|---|
| 1777988152 | 15.56° C | 86% | 1006.6 hPa | 0 mm | 0.89 m/s, 261° | - | - |
| 1777987852 | 15° C | 87% | 1006.5 hPa | 0 mm | 0.89 m/s, 249° | - | - |
| 1777987551 | 15° C | 87% | 1006.5 hPa | 0 mm | 2.68 m/s, 238° | - | - |
| 1777987251 | 14.44° C | 87% | 1006.5 hPa | 0 mm | 2.68 m/s, 247° | - | - |
| 1777986951 | 14.44° C | 88% | 1006.5 hPa | 0 mm | 3.13 m/s, 197° | - | - |
| 1777986652 | 14.44° C | 88% | 1006.4 hPa | 0 mm | 1.34 m/s, 223° | - | - |
| 1777986352 | 14.44° C | 88% | 1006.5 hPa | 0 mm | 1.34 m/s, 244° | - | - |
| 1777986051 | 14.44° C | 88% | 1006.6 hPa | 0 mm | 2.68 m/s, 231° | - | - |
| 1777985751 | 14.44° C | 88% | 1006.6 hPa | 0 mm | 1.34 m/s, 220° | - | - |
| 1777985451 | 14.44° C | 89% | 1006.6 hPa | 0 mm | 1.34 m/s, 215° | - | - |
| 1777985151 | 14.44° C | 88% | 1006.5 hPa | 0 mm | 2.68 m/s, 232° | - | - |
| 1777984851 | 14.44° C | 88% | 1006.5 hPa | 0 mm | 2.24 m/s, 230° | - | - |
| 1777984552 | 14.44° C | 88% | 1006.6 hPa | 0 mm | 2.68 m/s, 233° | - | - |
| 1777984252 | 14.44° C | 88% | 1006.6 hPa | 0 mm | 2.68 m/s, 224° | - | - |
| 1777983951 | 14.44° C | 88% | 1006.6 hPa | 0 mm | 2.24 m/s, 228° | - | - |
| 1777983651 | 14.44° C | 88% | 1006.6 hPa | 0 mm | 1.34 m/s, 219° | - | - |
| 1777983351 | 13.89° C | 88% | 1006.6 hPa | 0 mm | 2.24 m/s, 220° | - | - |
| 1777983053 | 13.89° C | 88% | 1006.6 hPa | 0 mm | 1.34 m/s, 241° | - | - |
| 1777982752 | 13.89° C | 89% | 1006.3 hPa | 0 mm | 2.24 m/s, 242° | - | - |
| 1777982452 | 13.89° C | 89% | 1006.1 hPa | 0 mm | 1.34 m/s, 244° | - | - |
| 1777982152 | 13.89° C | 89% | 1006.1 hPa | 0 mm | 0.89 m/s, 251° | - | - |
| 1777981851 | 13.89° C | 89% | 1006 hPa | 0 mm | 1.34 m/s, 251° | - | - |
| 1777981552 | 13.89° C | 89% | 1005.8 hPa | 0 mm | 2.24 m/s, 226° | - | - |
| 1777981251 | 13.89° C | 89% | 1005.6 hPa | 0 mm | 3.13 m/s, 252° | - | - |
| 1777980951 | 13.89° C | 90% | 1005.3 hPa | 0 mm | 2.24 m/s, 250° | - | - |
* Rain latest hour (hover to see other rain measurements)
** Current wind speed in m/s (hover to see current wind gust speed)